Location: Wheeling
(40.0640°N, 80.7210°W)
Time: 20:09:03
(UTC-05:00)

KAITUO 1B - Pass Details

Date: 30 October 2021
Orbit: 490 x 506 km, 97.4° (Epoch: 30 November)

Event Time Altitude Azimuth Distance (km) Brightness Sun altitude
Rises 20:10:30 0° 212° (SSW) 2,551 ? -21.2°
Reaches altitude 10° 20:13:41 10° 243° (WSW) 1,677 ? -21.8°
Maximum altitude 20:15:11 12° 268° (W) 1,548 ? -22.1°
Drops below altitude 10° 20:16:42 10° 293° (WNW) 1,684 ? -22.4°
Sets 20:19:55 0° 325° (NW) 2,574 ? -23.0°
